owner,sensor,date,latitude,longitude,vertical_datum,direction_of_sea_water_velocity,sea_water_speed,upward_sea_water_velocity,qcFlag 
TABS,ioos:station:wmo:42044:1,1998-12-01T00:00:00Z,26.1914,-97.0507,2.0,18.27119078,50.84330831,-99999.0,'11111222,11111222,99999999' 
TABS,ioos:station:wmo:42044:1,1998-12-01T00:30:00Z,26.1914,-97.0507,2.0,18.27119078,50.84330831,-99999.0,'11111222,11111222,99999999' 
TABS,ioos:station:wmo:42044:1,1998-12-01T01:00:00Z,26.1914,-97.0507,2.0,30.05252683,58.00815977,-99999.0,'11111222,11111222,99999999' 
TABS,ioos:station:wmo:42044:1,1998-12-01T01:30:00Z,26.1914,-97.0507,2.0,24.63105135,53.26665373,-99999.0,'11111222,11111222,99999999' 
TABS,ioos:station:wmo:42044:1,1998-12-01T02:00:00Z,26.1914,-97.0507,2.0,25.98181047,52.70685439,-99999.0,'11111222,11111222,99999999' 
TABS,ioos:station:wmo:42044:1,1998-12-01T02:30:00Z,26.1914,-97.0507,2.0,32.81339322,56.91058337,-99999.0,'11111222,11111222,99999999' 
TABS,ioos:station:wmo:42044:1,1998-12-01T03:00:00Z,26.1914,-97.0507,2.0,23.89054419,50.02614516,-99999.0,'11111222,11111222,99999999' 
TABS,ioos:station:wmo:42044:1,1998-12-01T03:30:00Z,26.1914,-97.0507,2.0,27.96141838,52.12480408,-99999.0,'11111222,11111222,99999999' 
TABS,ioos:station:wmo:42044:1,1998-12-01T04:00:00Z,26.1914,-97.0507,2.0,35.82549288,58.80577183,-99999.0,'11111222,11111222,99999999' 
TABS,ioos:station:wmo:42044:1,1998-12-01T04:30:00Z,26.1914,-97.0507,2.0,40.32956383,64.69589863,-99999.0,'11111222,11111222,99999999' 
TABS,ioos:station:wmo:42044:1,1998-12-01T05:00:00Z,26.1914,-97.0507,2.0,12.89351034,48.75936115,-99999.0,'11111222,11111222,99999999' 
TABS,ioos:station:wmo:42044:1,1998-12-01T05:30:00Z,26.1914,-97.0507,2.0,21.25066627,57.55335959,-99999.0,'11111222,11111222,99999999' 
TABS,ioos:station:wmo:42044:1,1998-12-01T06:00:00Z,26.1914,-97.0507,2.0,15.04222888,74.05753709,-99999.0,'11111222,11111222,99999999' 
TABS,ioos:station:wmo:42044:1,1998-12-01T06:30:00Z,26.1914,-97.0507,2.0,13.69662685,73.61328209,-99999.0,'11111222,11111222,99999999' 
TABS,ioos:station:wmo:42044:1,1998-12-01T07:00:00Z,26.1914,-97.0507,2.0,8.371348427,69.5813373,-99999.0,'11111222,11111222,99999999' 
TABS,ioos:station:wmo:42044:1,1998-12-01T07:30:00Z,26.1914,-97.0507,2.0,13.21576241,68.41176507,-99999.0,'11111222,11111222,99999999' 
TABS,ioos:station:wmo:42044:1,1998-12-01T08:00:00Z,26.1914,-97.0507,2.0,13.13014999,68.84992447,-99999.0,'11111222,11111222,99999999' 
TABS,ioos:station:wmo:42044:1,1998-12-01T08:30:00Z,26.1914,-97.0507,2.0,4.456189697,57.53390739,-99999.0,'11111222,11111222,99999999' 
TABS,ioos:station:wmo:42044:1,1998-12-01T09:00:00Z,26.1914,-97.0507,2.0,338.7122311,42.69307204,-99999.0,'11111222,11111222,99999999' 
TABS,ioos:station:wmo:42044:1,1998-12-01T09:30:00Z,26.1914,-97.0507,2.0,351.361736,52.5966729,-99999.0,'11111222,11111222,99999999' 
TABS,ioos:station:wmo:42044:1,1998-12-01T10:00:00Z,26.1914,-97.0507,2.0,341.2955601,49.70523111,-99999.0,'11111222,11111222,99999999' 
TABS,ioos:station:wmo:42044:1,1998-12-01T10:30:00Z,26.1914,-97.0507,2.0,318.8216736,44.34934498,-99999.0,'11111222,11111222,99999999' 
TABS,ioos:station:wmo:42044:1,1998-12-01T11:00:00Z,26.1914,-97.0507,2.0,348.9020777,47.22312675,-99999.0,'11111222,11111222,99999999' 
TABS,ioos:station:wmo:42044:1,1998-12-01T11:30:00Z,26.1914,-97.0507,2.0,346.684964,49.15131026,-99999.0,'11111222,11111222,99999999' 
TABS,ioos:station:wmo:42044:1,1998-12-01T12:00:00Z,26.1914,-97.0507,2.0,346.1044227,46.5111965,-99999.0,'11111222,11111222,99999999' 
TABS,ioos:station:wmo:42044:1,1998-12-01T12:30:00Z,26.1914,-97.0507,2.0,344.903639,46.91927536,-99999.0,'11111222,11111222,99999999' 
TABS,ioos:station:wmo:42044:1,1998-12-01T13:00:00Z,26.1914,-97.0507,2.0,341.5692283,46.17874078,-99999.0,'11111222,11111222,99999999' 
TABS,ioos:station:wmo:42044:1,1998-12-01T13:30:00Z,26.1914,-97.0507,2.0,350.184411,43.69972654,-99999.0,'11111222,11111222,99999999' 
TABS,ioos:station:wmo:42044:1,1998-12-01T14:00:00Z,26.1914,-97.0507,2.0,354.3126644,42.07714106,-99999.0,'11111222,11111222,99999999' 
TABS,ioos:station:wmo:42044:1,1998-12-01T14:30:00Z,26.1914,-97.0507,2.0,349.8871977,43.28246874,-99999.0,'11111222,11111222,99999999' 
TABS,ioos:station:wmo:42044:1,1998-12-01T15:00:00Z,26.1914,-97.0507,2.0,355.0603284,41.57442483,-99999.0,'11111222,11111222,99999999' 
TABS,ioos:station:wmo:42044:1,1998-12-01T16:30:00Z,26.1914,-97.0507,2.0,351.9667193,39.42691593,-99999.0,'11111222,11111222,99999999' 
TABS,ioos:station:wmo:42044:1,1998-12-01T17:00:00Z,26.1914,-97.0507,2.0,352.9712666,41.43138062,-99999.0,'11111222,11111222,99999999' 
TABS,ioos:station:wmo:42044:1,1998-12-01T17:30:00Z,26.1914,-97.0507,2.0,346.8021208,41.78365709,-99999.0,'11111222,11111222,99999999' 
TABS,ioos:station:wmo:42044:1,1998-12-01T18:00:00Z,26.1914,-97.0507,2.0,14.52358962,42.78725628,-99999.0,'11111222,11111222,99999999' 
TABS,ioos:station:wmo:42044:1,1998-12-01T18:30:00Z,26.1914,-97.0507,2.0,347.4035941,43.05638745,-99999.0,'11111222,11111222,99999999' 
TABS,ioos:station:wmo:42044:1,1998-12-01T19:00:00Z,26.1914,-97.0507,2.0,27.07789854,73.96761791,-99999.0,'11111222,11111222,99999999' 
TABS,ioos:station:wmo:42044:1,1998-12-01T19:30:00Z,26.1914,-97.0507,2.0,243.9120293,159.9336065,-99999.0,'11133222,11111222,99999999' 
TABS,ioos:station:wmo:42044:1,1998-12-01T20:00:00Z,26.1914,-97.0507,2.0,241.9235599,159.2500003,-99999.0,'11133222,11111222,99999999' 
TABS,ioos:station:wmo:42044:1,1998-12-01T20:30:00Z,26.1914,-97.0507,2.0,19.13775119,84.06598599,-99999.0,'11111222,11111222,99999999' 
TABS,ioos:station:wmo:42044:1,1998-12-01T21:00:00Z,26.1914,-97.0507,2.0,9.809884688,73.48440991,-99999.0,'11111222,11111222,99999999' 
TABS,ioos:station:wmo:42044:1,1998-12-01T21:30:00Z,26.1914,-97.0507,2.0,2.261640149,56.51401419,-99999.0,'11111222,11111222,99999999' 
TABS,ioos:station:wmo:42044:1,1998-12-01T22:00:00Z,26.1914,-97.0507,2.0,23.54325742,98.48817036,-99999.0,'11111222,11111222,99999999' 
TABS,ioos:station:wmo:42044:1,1998-12-01T22:30:00Z,26.1914,-97.0507,2.0,355.2108859,48.14811315,-99999.0,'11111222,11111222,99999999' 
TABS,ioos:station:wmo:42044:1,1998-12-01T23:00:00Z,26.1914,-97.0507,2.0,14.06475162,73.57561621,-99999.0,'11111222,11111222,99999999' 
TABS,ioos:station:wmo:42044:1,1998-12-02T00:00:00Z,26.1914,-97.0507,2.0,345.3891862,46.65892626,-99999.0,'11111222,11111222,99999999' 
TABS,ioos:station:wmo:42044:1,1998-12-02T00:30:00Z,26.1914,-97.0507,2.0,345.3891862,46.65892626,-99999.0,'11111222,11111222,99999999' 
TABS,ioos:station:wmo:42044:1,1998-12-02T01:00:00Z,26.1914,-97.0507,2.0,350.8590955,51.61551705,-99999.0,'11111222,11111222,99999999' 
TABS,ioos:station:wmo:42044:1,1998-12-02T01:30:00Z,26.1914,-97.0507,2.0,353.2107144,50.41354183,-99999.0,'11111222,11111222,99999999' 
TABS,ioos:station:wmo:42044:1,1998-12-02T02:00:00Z,26.1914,-97.0507,2.0,344.5809508,46.52461069,-99999.0,'11111222,11111222,99999999' 
TABS,ioos:station:wmo:42044:1,1998-12-02T02:30:00Z,26.1914,-97.0507,2.0,349.4901388,48.18846854,-99999.0,'11111222,11111222,99999999' 
TABS,ioos:station:wmo:42044:1,1998-12-02T03:00:00Z,26.1914,-97.0507,2.0,4.964361583,53.39026597,-99999.0,'11111222,11111222,99999999' 
TABS,ioos:station:wmo:42044:1,1998-12-02T03:30:00Z,26.1914,-97.0507,2.0,10.69409816,60.19544335,-99999.0,'11111222,11111222,99999999' 
TABS,ioos:station:wmo:42044:1,1998-12-02T04:00:00Z,26.1914,-97.0507,2.0,350.5400757,43.50161606,-99999.0,'11111222,11111222,99999999' 
TABS,ioos:station:wmo:42044:1,1998-12-02T04:30:00Z,26.1914,-97.0507,2.0,11.11762027,52.53588678,-99999.0,'11111222,11111222,99999999' 
TABS,ioos:station:wmo:42044:1,1998-12-02T05:00:00Z,26.1914,-97.0507,2.0,19.45620895,63.52759715,-99999.0,'11111222,11111222,99999999' 
TABS,ioos:station:wmo:42044:1,1998-12-02T05:30:00Z,26.1914,-97.0507,2.0,12.72802622,56.82636096,-99999.0,'11111222,11111222,99999999' 
TABS,ioos:station:wmo:42044:1,1998-12-02T06:00:00Z,26.1914,-97.0507,2.0,9.569531381,50.16808248,-99999.0,'11111222,11111222,99999999' 
TABS,ioos:station:wmo:42044:1,1998-12-02T06:30:00Z,26.1914,-97.0507,2.0,17.19650101,58.95546879,-99999.0,'11111222,11111222,99999999' 
TABS,ioos:station:wmo:42044:1,1998-12-02T07:00:00Z,26.1914,-97.0507,2.0,13.22911342,56.63283941,-99999.0,'11111222,11111222,99999999' 
TABS,ioos:station:wmo:42044:1,1998-12-02T07:30:00Z,26.1914,-97.0507,2.0,17.50043629,57.96277512,-99999.0,'11111222,11111222,99999999' 
TABS,ioos:station:wmo:42044:1,1998-12-02T08:00:00Z,26.1914,-97.0507,2.0,16.58692613,60.00697459,-99999.0,'11111222,11111222,99999999' 
TABS,ioos:station:wmo:42044:1,1998-12-02T08:30:00Z,26.1914,-97.0507,2.0,302.857166,45.5817617,-99999.0,'11111222,11111222,99999999' 
TABS,ioos:station:wmo:42044:1,1998-12-02T09:00:00Z,26.1914,-97.0507,2.0,352.880141,43.24347003,-99999.0,'11111222,11111222,99999999' 
TABS,ioos:station:wmo:42044:1,1998-12-02T09:30:00Z,26.1914,-97.0507,2.0,326.4795755,41.28651596,-99999.0,'11111222,11111222,99999999' 
TABS,ioos:station:wmo:42044:1,1998-12-02T10:00:00Z,26.1914,-97.0507,2.0,2.963091563,40.43405124,-99999.0,'11111222,11111222,99999999' 
TABS,ioos:station:wmo:42044:1,1998-12-02T10:30:00Z,26.1914,-97.0507,2.0,0.897953316,38.29470068,-99999.0,'11111222,11111222,99999999' 
TABS,ioos:station:wmo:42044:1,1998-12-02T11:00:00Z,26.1914,-97.0507,2.0,0.673541708,38.2926442,-99999.0,'11111222,11111222,99999999' 
TABS,ioos:station:wmo:42044:1,1998-12-02T11:30:00Z,26.1914,-97.0507,2.0,357.8360917,35.48530964,-99999.0,'11111222,11111222,99999999' 
TABS,ioos:station:wmo:42044:1,1998-12-02T12:00:00Z,26.1914,-97.0507,2.0,3.749877832,31.9584136,-99999.0,'11111222,11111222,99999999' 
TABS,ioos:station:wmo:42044:1,1998-12-02T12:30:00Z,26.1914,-97.0507,2.0,0.000210459,36.5,-99999.0,'11111222,11111222,99999999' 
TABS,ioos:station:wmo:42044:1,1998-12-02T13:00:00Z,26.1914,-97.0507,2.0,1.922270243,35.47996195,-99999.0,'11111222,11111222,99999999' 
TABS,ioos:station:wmo:42044:1,1998-12-02T13:30:00Z,26.1914,-97.0507,2.0,4.531024384,33.92601951,-99999.0,'11111222,11111222,99999999' 
TABS,ioos:station:wmo:42044:1,1998-12-02T14:00:00Z,26.1914,-97.0507,2.0,6.115699724,34.91871704,-99999.0,'11111222,11111222,99999999' 
TABS,ioos:station:wmo:42044:1,1998-12-02T14:30:00Z,26.1914,-97.0507,2.0,10.44532933,32.87476996,-99999.0,'11111222,11111222,99999999' 
TABS,ioos:station:wmo:42044:1,1998-12-02T15:00:00Z,26.1914,-97.0507,2.0,8.354904021,32.82839168,-99999.0,'11111222,11111222,99999999' 
TABS,ioos:station:wmo:42044:1,1998-12-02T15:30:00Z,26.1914,-97.0507,2.0,12.99209628,31.80412866,-99999.0,'11111222,11111222,99999999' 
TABS,ioos:station:wmo:42044:1,1998-12-02T16:00:00Z,26.1914,-97.0507,2.0,13.55886727,34.33696114,-99999.0,'11111222,11111222,99999999' 
TABS,ioos:station:wmo:42044:1,1998-12-02T16:30:00Z,26.1914,-97.0507,2.0,19.5807358,25.78087857,-99999.0,'11111222,11111222,99999999' 
TABS,ioos:station:wmo:42044:1,1998-12-02T17:00:00Z,26.1914,-97.0507,2.0,346.7435426,16.22228406,-99999.0,'11111222,11111222,99999999' 
TABS,ioos:station:wmo:42044:1,1998-12-02T17:30:00Z,26.1914,-97.0507,2.0,13.67094353,27.75634162,-99999.0,'11111222,11111222,99999999' 
TABS,ioos:station:wmo:42044:1,1998-12-02T18:00:00Z,26.1914,-97.0507,2.0,24.20442331,17.80526888,-99999.0,'11111222,11111222,99999999' 
TABS,ioos:station:wmo:42044:1,1998-12-02T18:30:00Z,26.1914,-97.0507,2.0,2.569445471,26.54668529,-99999.0,'11111222,11111222,99999999' 
TABS,ioos:station:wmo:42044:1,1998-12-02T19:00:00Z,26.1914,-97.0507,2.0,40.4629851,39.95653764,-99999.0,'11111222,11111222,99999999' 
TABS,ioos:station:wmo:42044:1,1998-12-02T19:30:00Z,26.1914,-97.0507,2.0,234.9737395,145.3792836,-99999.0,'11111222,11111222,99999999' 
TABS,ioos:station:wmo:42044:1,1998-12-02T20:00:00Z,26.1914,-97.0507,2.0,242.5818531,147.5431615,-99999.0,'11111222,11111222,99999999' 
TABS,ioos:station:wmo:42044:1,1998-12-02T20:30:00Z,26.1914,-97.0507,2.0,44.13723191,69.96200755,-99999.0,'11111222,11111222,99999999' 
TABS,ioos:station:wmo:42044:1,1998-12-02T21:00:00Z,26.1914,-97.0507,2.0,21.86695999,48.81190838,-99999.0,'11111222,11111222,99999999' 
TABS,ioos:station:wmo:42044:1,1998-12-02T21:30:00Z,26.1914,-97.0507,2.0,20.47813579,51.53677619,-99999.0,'11111222,11111222,99999999' 
TABS,ioos:station:wmo:42044:1,1998-12-02T22:00:00Z,26.1914,-97.0507,2.0,35.85779303,92.83448713,-99999.0,'11111222,11111222,99999999' 
TABS,ioos:station:wmo:42044:1,1998-12-02T22:30:00Z,26.1914,-97.0507,2.0,19.99391582,41.3842313,-99999.0,'11111222,11111222,99999999' 
TABS,ioos:station:wmo:42044:1,1998-12-02T23:00:00Z,26.1914,-97.0507,2.0,37.07977489,80.30853815,-99999.0,'11111222,11111222,99999999' 
TABS,ioos:station:wmo:42044:1,1998-12-03T00:00:00Z,26.1914,-97.0507,2.0,9.109926403,39.53870509,-99999.0,'11111222,11111222,99999999' 
TABS,ioos:station:wmo:42044:1,1998-12-03T00:30:00Z,26.1914,-97.0507,2.0,9.109926403,39.53870509,-99999.0,'11111222,11111222,99999999' 
TABS,ioos:station:wmo:42044:1,1998-12-03T01:00:00Z,26.1914,-97.0507,2.0,27.53058278,63.17341529,-99999.0,'11111222,11111222,99999999' 
TABS,ioos:station:wmo:42044:1,1998-12-03T01:30:00Z,26.1914,-97.0507,2.0,358.4564672,38.60401145,-99999.0,'11111222,11111222,99999999' 
TABS,ioos:station:wmo:42044:1,1998-12-03T02:00:00Z,26.1914,-97.0507,2.0,21.92219565,50.27526728,-99999.0,'11111222,11111222,99999999' 
TABS,ioos:station:wmo:42044:1,1998-12-03T02:30:00Z,26.1914,-97.0507,2.0,14.81879448,37.30060589,-99999.0,'11111222,11111222,99999999' 
TABS,ioos:station:wmo:42044:1,1998-12-03T03:00:00Z,26.1914,-97.0507,2.0,20.2091342,40.96164181,-99999.0,'11111222,11111222,99999999' 
TABS,ioos:station:wmo:42044:1,1998-12-03T03:30:00Z,26.1914,-97.0507,2.0,21.12545623,42.17434765,-99999.0,'11111222,11111222,99999999' 
TABS,ioos:station:wmo:42044:1,1998-12-03T04:00:00Z,26.1914,-97.0507,2.0,11.49566287,35.12458398,-99999.0,'11111222,11111222,99999999' 
TABS,ioos:station:wmo:42044:1,1998-12-03T04:30:00Z,26.1914,-97.0507,2.0,30.27804432,42.2654244,-99999.0,'11111222,11111222,99999999' 
TABS,ioos:station:wmo:42044:1,1998-12-03T05:00:00Z,26.1914,-97.0507,2.0,16.72409077,37.80923829,-99999.0,'11111222,11111222,99999999' 
TABS,ioos:station:wmo:42044:1,1998-12-03T05:30:00Z,26.1914,-97.0507,2.0,34.75776729,55.67382868,-99999.0,'11111222,11111222,99999999' 
TABS,ioos:station:wmo:42044:1,1998-12-03T06:00:00Z,26.1914,-97.0507,2.0,35.99209577,61.87126312,-99999.0,'11111222,11111222,99999999' 
TABS,ioos:station:wmo:42044:1,1998-12-03T06:30:00Z,26.1914,-97.0507,2.0,20.5761467,50.44824873,-99999.0,'11111222,11111222,99999999' 
TABS,ioos:station:wmo:42044:1,1998-12-03T07:00:00Z,26.1914,-97.0507,2.0,34.48097392,62.90067249,-99999.0,'11111222,11111222,99999999' 
TABS,ioos:station:wmo:42044:1,1998-12-03T07:30:00Z,26.1914,-97.0507,2.0,34.86485815,60.47503038,-99999.0,'11111222,11111222,99999999' 
TABS,ioos:station:wmo:42044:1,1998-12-03T08:00:00Z,26.1914,-97.0507,2.0,21.34203474,54.87288037,-99999.0,'11111222,11111222,99999999' 
TABS,ioos:station:wmo:42044:1,1998-12-03T08:30:00Z,26.1914,-97.0507,2.0,20.68483621,55.26228732,-99999.0,'11111222,11111222,99999999' 
TABS,ioos:station:wmo:42044:1,1998-12-03T09:00:00Z,26.1914,-97.0507,2.0,10.73205015,55.20557943,-99999.0,'11111222,11111222,99999999' 
TABS,ioos:station:wmo:42044:1,1998-12-03T09:30:00Z,26.1914,-97.0507,2.0,14.58130571,49.73175344,-99999.0,'11111222,11111222,99999999' 
TABS,ioos:station:wmo:42044:1,1998-12-03T10:00:00Z,26.1914,-97.0507,2.0,1.007502634,59.15914215,-99999.0,'11111222,11111222,99999999' 
TABS,ioos:station:wmo:42044:1,1998-12-03T10:30:00Z,26.1914,-97.0507,2.0,349.5488915,56.67019764,-99999.0,'11111222,11111222,99999999' 
TABS,ioos:station:wmo:42044:1,1998-12-03T11:00:00Z,26.1914,-97.0507,2.0,359.1359858,59.00671233,-99999.0,'11111222,11144222,99999999' 
TABS,ioos:station:wmo:42044:1,1998-12-03T11:30:00Z,26.1914,-97.0507,2.0,355.0224463,61.77298115,-99999.0,'11111222,11111222,99999999' 
TABS,ioos:station:wmo:42044:1,1998-12-03T12:00:00Z,26.1914,-97.0507,2.0,353.8404199,63.83857298,-99999.0,'11111222,11111222,99999999' 
TABS,ioos:station:wmo:42044:1,1998-12-03T12:30:00Z,26.1914,-97.0507,2.0,356.700395,64.62715219,-99999.0,'11111222,11111222,99999999' 
TABS,ioos:station:wmo:42044:1,1998-12-03T13:00:00Z,26.1914,-97.0507,2.0,355.9271191,58.70828306,-99999.0,'11111222,11111222,99999999' 
TABS,ioos:station:wmo:42044:1,1998-12-03T13:30:00Z,26.1914,-97.0507,2.0,358.5007196,56.93949859,-99999.0,'11111222,11111222,99999999' 
TABS,ioos:station:wmo:42044:1,1998-12-03T14:00:00Z,26.1914,-97.0507,2.0,356.5426545,56.8735246,-99999.0,'11111222,11111222,99999999' 
TABS,ioos:station:wmo:42044:1,1998-12-03T14:30:00Z,26.1914,-97.0507,2.0,359.0496429,53.64738297,-99999.0,'11111222,11144222,99999999' 
TABS,ioos:station:wmo:42044:1,1998-12-03T15:00:00Z,26.1914,-97.0507,2.0,359.2053837,53.34513286,-99999.0,'11111222,11144222,99999999' 
TABS,ioos:station:wmo:42044:1,1998-12-03T15:30:00Z,26.1914,-97.0507,2.0,1.274664992,53.50323542,-99999.0,'11111222,11111222,99999999' 
TABS,ioos:station:wmo:42044:1,1998-12-03T16:00:00Z,26.1914,-97.0507,2.0,355.6701021,51.25630693,-99999.0,'11111222,11111222,99999999' 
TABS,ioos:station:wmo:42044:1,1998-12-03T16:30:00Z,26.1914,-97.0507,2.0,0.326058958,52.75085307,-99999.0,'11111222,11111222,99999999' 
TABS,ioos:station:wmo:42044:1,1998-12-03T17:00:00Z,26.1914,-97.0507,2.0,2.916934121,52.66822951,-99999.0,'11111222,11111222,99999999' 
TABS,ioos:station:wmo:42044:1,1998-12-03T17:30:00Z,26.1914,-97.0507,2.0,349.0544051,46.29218725,-99999.0,'11111222,11111222,99999999' 
TABS,ioos:station:wmo:42044:1,1998-12-03T18:00:00Z,26.1914,-97.0507,2.0,327.6895857,46.54728778,-99999.0,'11111222,11111222,99999999' 
TABS,ioos:station:wmo:42044:1,1998-12-03T18:30:00Z,26.1914,-97.0507,2.0,38.39794798,60.4554952,-99999.0,'11111222,11111222,99999999' 
TABS,ioos:station:wmo:42044:1,1998-12-03T19:00:00Z,26.1914,-97.0507,2.0,299.4365832,61.24675991,-99999.0,'11111222,11111222,99999999' 
TABS,ioos:station:wmo:42044:1,1998-12-03T19:30:00Z,26.1914,-97.0507,2.0,281.0544617,151.511031,-99999.0,'11133222,11111222,99999999' 
TABS,ioos:station:wmo:42044:1,1998-12-03T20:00:00Z,26.1914,-97.0507,2.0,274.3710118,148.5419621,-99999.0,'11111222,11111222,99999999' 
TABS,ioos:station:wmo:42044:1,1998-12-03T20:30:00Z,26.1914,-97.0507,2.0,12.79521331,63.26085836,-99999.0,'11111222,11111222,99999999' 
TABS,ioos:station:wmo:42044:1,1998-12-03T21:00:00Z,26.1914,-97.0507,2.0,282.2208558,130.2002922,-99999.0,'11111222,11111222,99999999' 
TABS,ioos:station:wmo:42044:1,1998-12-03T21:30:00Z,26.1914,-97.0507,2.0,50.01997547,96.24576926,-99999.0,'11111222,11111222,99999999' 
TABS,ioos:station:wmo:42044:1,1998-12-03T22:00:00Z,26.1914,-97.0507,2.0,316.7348402,62.60763691,-99999.0,'11111222,11111222,99999999' 
TABS,ioos:station:wmo:42044:1,1998-12-03T22:30:00Z,26.1914,-97.0507,2.0,48.87365228,95.14644134,-99999.0,'11111222,11111222,99999999' 
TABS,ioos:station:wmo:42044:1,1998-12-03T23:00:00Z,26.1914,-97.0507,2.0,34.30105811,81.16557213,-99999.0,'11111222,11111222,99999999' 
TABS,ioos:station:wmo:42044:1,1998-12-04T00:00:00Z,26.1914,-97.0507,2.0,33.61639318,64.59211794,-99999.0,'11111222,11111222,99999999' 
TABS,ioos:station:wmo:42044:1,1998-12-04T00:30:00Z,26.1914,-97.0507,2.0,33.61639318,64.59211794,-99999.0,'11111222,11111222,99999999' 
TABS,ioos:station:wmo:42044:1,1998-12-04T01:00:00Z,26.1914,-97.0507,2.0,42.69679367,89.20287944,-99999.0,'11111222,11111222,99999999' 
TABS,ioos:station:wmo:42044:1,1998-12-04T01:30:00Z,26.1914,-97.0507,2.0,19.28640515,56.82923983,-99999.0,'11111222,11111222,99999999' 
TABS,ioos:station:wmo:42044:1,1998-12-04T02:00:00Z,26.1914,-97.0507,2.0,37.28891794,73.03995208,-99999.0,'11111222,11111222,99999999' 
TABS,ioos:station:wmo:42044:1,1998-12-04T02:30:00Z,26.1914,-97.0507,2.0,9.093696646,49.03630186,-99999.0,'11111222,11111222,99999999' 
TABS,ioos:station:wmo:42044:1,1998-12-04T03:00:00Z,26.1914,-97.0507,2.0,23.56351691,52.18092084,-99999.0,'11111222,11111222,99999999' 
TABS,ioos:station:wmo:42044:1,1998-12-04T03:30:00Z,26.1914,-97.0507,2.0,27.14510502,52.58159564,-99999.0,'11111222,11111222,99999999' 
TABS,ioos:station:wmo:42044:1,1998-12-04T04:00:00Z,26.1914,-97.0507,2.0,15.44172364,44.2057123,-99999.0,'11111222,11111222,99999999' 
TABS,ioos:station:wmo:42044:1,1998-12-04T04:30:00Z,26.1914,-97.0507,2.0,23.84225771,43.49143364,-99999.0,'11111222,11111222,99999999' 
TABS,ioos:station:wmo:42044:1,1998-12-04T05:00:00Z,26.1914,-97.0507,2.0,29.92489553,48.99148089,-99999.0,'11111222,11111222,99999999' 
TABS,ioos:station:wmo:42044:1,1998-12-04T05:30:00Z,26.1914,-97.0507,2.0,34.48384278,59.46956617,-99999.0,'11111222,11111222,99999999' 
TABS,ioos:station:wmo:42044:1,1998-12-04T06:00:00Z,26.1914,-97.0507,2.0,40.92040088,48.90013701,-99999.0,'11111222,11111222,99999999' 
TABS,ioos:station:wmo:42044:1,1998-12-04T06:30:00Z,26.1914,-97.0507,2.0,30.21452438,47.07524296,-99999.0,'11111222,11111222,99999999' 
TABS,ioos:station:wmo:42044:1,1998-12-04T07:00:00Z,26.1914,-97.0507,2.0,46.31561209,59.75212967,-99999.0,'11111222,11111222,99999999' 
TABS,ioos:station:wmo:42044:1,1998-12-04T07:30:00Z,26.1914,-97.0507,2.0,37.71144665,50.66346317,-99999.0,'11111222,11111222,99999999' 
TABS,ioos:station:wmo:42044:1,1998-12-04T08:00:00Z,26.1914,-97.0507,2.0,36.13803011,46.49579443,-99999.0,'11111222,11111222,99999999' 
TABS,ioos:station:wmo:42044:1,1998-12-04T08:30:00Z,26.1914,-97.0507,2.0,35.51666953,44.11830686,-99999.0,'11111222,11111222,99999999' 
TABS,ioos:station:wmo:42044:1,1998-12-04T09:00:00Z,26.1914,-97.0507,2.0,288.9539589,67.42568428,-99999.0,'11111222,11111222,99999999' 
TABS,ioos:station:wmo:42044:1,1998-12-04T09:30:00Z,26.1914,-97.0507,2.0,71.56509429,28.27076228,-99999.0,'11111222,11111222,99999999' 
TABS,ioos:station:wmo:42044:1,1998-12-04T10:00:00Z,26.1914,-97.0507,2.0,46.18946334,20.43978963,-99999.0,'11111222,11111222,99999999' 
TABS,ioos:station:wmo:42044:1,1998-12-04T10:30:00Z,26.1914,-97.0507,2.0,34.37641932,24.54724424,-99999.0,'11111222,11111222,99999999' 
TABS,ioos:station:wmo:42044:1,1998-12-04T11:00:00Z,26.1914,-97.0507,2.0,64.98444112,27.12447788,-99999.0,'11111222,11111222,99999999' 
TABS,ioos:station:wmo:42044:1,1998-12-04T11:30:00Z,26.1914,-97.0507,2.0,42.31888713,24.79001815,-99999.0,'11111222,11111222,99999999' 
TABS,ioos:station:wmo:42044:1,1998-12-04T12:00:00Z,26.1914,-97.0507,2.0,30.33976532,23.30118023,-99999.0,'11111222,11111222,99999999' 
TABS,ioos:station:wmo:42044:1,1998-12-04T12:30:00Z,26.1914,-97.0507,2.0,20.49186042,30.22238409,-99999.0,'11111222,11111222,99999999' 
TABS,ioos:station:wmo:42044:1,1998-12-04T13:00:00Z,26.1914,-97.0507,2.0,31.36707334,29.48991183,-99999.0,'11111222,11111222,99999999' 
TABS,ioos:station:wmo:42044:1,1998-12-04T13:30:00Z,26.1914,-97.0507,2.0,15.39308939,36.46817791,-99999.0,'11111222,11111222,99999999' 
TABS,ioos:station:wmo:42044:1,1998-12-04T14:00:00Z,26.1914,-97.0507,2.0,349.7948485,31.94540969,-99999.0,'11111222,11111222,99999999' 
TABS,ioos:station:wmo:42044:1,1998-12-04T14:30:00Z,26.1914,-97.0507,2.0,25.05439651,37.99505889,-99999.0,'11111222,11111222,99999999' 
TABS,ioos:station:wmo:42044:1,1998-12-04T15:00:00Z,26.1914,-97.0507,2.0,19.08612538,41.46962382,-99999.0,'11111222,11111222,99999999' 
TABS,ioos:station:wmo:42044:1,1998-12-04T15:30:00Z,26.1914,-97.0507,2.0,22.10780538,36.8276255,-99999.0,'11111222,11111222,99999999' 
TABS,ioos:station:wmo:42044:1,1998-12-04T16:00:00Z,26.1914,-97.0507,2.0,21.48287894,35.38850802,-99999.0,'11111222,11111222,99999999' 
TABS,ioos:station:wmo:42044:1,1998-12-04T16:30:00Z,26.1914,-97.0507,2.0,20.21160022,37.94659669,-99999.0,'11111222,11111222,99999999' 
TABS,ioos:station:wmo:42044:1,1998-12-04T17:00:00Z,26.1914,-97.0507,2.0,21.90817484,41.91708124,-99999.0,'11111222,11111222,99999999' 
TABS,ioos:station:wmo:42044:1,1998-12-04T17:30:00Z,26.1914,-97.0507,2.0,15.95145178,40.13538339,-99999.0,'11111222,11111222,99999999' 
TABS,ioos:station:wmo:42044:1,1998-12-04T18:00:00Z,26.1914,-97.0507,2.0,23.61730651,37.56645977,-99999.0,'11111222,11111222,99999999' 
TABS,ioos:station:wmo:42044:1,1998-12-04T18:30:00Z,26.1914,-97.0507,2.0,21.91001634,45.12961888,-99999.0,'11111222,11111222,99999999' 